Starlink 36112

operational
NORAD ID: 66944 Int'l Des: 2025-286 Owner: SPXS Country: US Constellation: starlink
LEOCIRCULAR

About Starlink 36112

Description loading...

Live Position

Loading 3D Globe...

Upcoming Passes

Altitude History

Altitude vs Time

uPlot chart will show altitude changes over time

Two-Line Element Set

1 66944U 25286V 25347.25002315 -.01289195 51421-3 -27937-2 0 9994
2 66944 53.1566 48.1017 0001025 75.1871 113.9674 15.97733928 2079
Epoch: Dec 13, 2025 • Age: 20 hours

Current Status

Altitude 303.4 km
Velocity 7.73 km/s
Sub-Earth Point -47.99°S, 170.09°E
Launch Date Dec 7, 2025
Age 6 days
Type internet

Technical Details

Classification Payload
Mass 575.00 kg
Dry Mass 530.00 kg
Total Mass 575.00 kg
Length 0.30 m
Diameter 4.10 m
Span 29.00 m
Shape Box + pan
Manufacturer SPXS
Bus Type Starlink V2MO
Phase Status In Orbit
Owner/State SPXS/US

Large Constellations

Loading constellations...